Regional Weather Roundup
Issued by NWS

Home | Current Version | Previous Version | Graphics & Text | Print | Product List | Glossary On
Versions: 1 2 3 4 5 6 7 8 9 10 11 12 13 14 15 16 17 18 19 20 21 22 23 24 25 26 27 28 29 30 31 32 33 34 35 36 37 38 39 40 41 42 43 44 45 46 47 48 49 50
000
ASUS43 KFSD 220402
RWRSD

WEATHER ROUNDUP FOR SOUTH DAKOTA
NATIONAL WEATHER SERVICE SIOUX FALLS SD
1000 PM CST SAT JAN 21 2017

NOTE: "FAIR" INDICATES FEW OR NO CLOUDS BELOW 12,000 FEET WITH NO
SIGNIFICANT WEATHER AND/OR OBSTRUCTIONS TO VISIBILITY.


SDZ001>005-009-010-012>017-220500-
NORTHWEST AND NORTH CENTRAL SOUTH DAKOTA

CITY           SKY/WX    TMP DP  RH WIND       PRES   REMARKS
BUFFALO          N/A     25  22  88 W8        29.52R WCI  16
FAITH            N/A     23  21  92 NW14      29.58R WCI  11
MOBRIDGE       CLOUDY    17  13  84 CALM      29.55R FOG
$$

SDZ012>016-024>037-041>051-057-063-072>074-220500-
SOUTHWEST AND SOUTH CENTRAL SOUTH DAKOTA

CITY           SKY/WX    TMP DP  RH WIND       PRES   REMARKS
RAPID CTY ARPT CLOUDY    29  23  78 NW9       29.60R WCI  20
PIERRE         CLOUDY    20  18  92 CALM      29.57R
CUSTER         CLOUDY    26  23  88 CALM      29.57R
ELLSWORTH AFB  CLOUDY    27  23  86 N9        29.60R WCI  17
PHILIP         CLEAR     25  23  92 W6        29.60R WCI  18
PINE RIDGE     CLOUDY    21  20  96 CALM      29.62R
SPEARFISH      FAIR      27  21  80 SW3       29.61R
WINNER         FAIR      30  27  88 SW8       29.58R WCI  22
$$

SDZ004>011-016>023-039-040-220500-
NORTHEAST SOUTH DAKOTA

CITY           SKY/WX    TMP DP  RH WIND       PRES   REMARKS
ABERDEEN       CLOUDY    33  29  85 NW6       29.56R WCI  28
WATERTOWN      CLOUDY    30  28  92 NW9       29.53R WCI  22
BROOKINGS      CLOUDY    31  29  92 NW10      29.53R WCI  22
SISSETON         N/A     34  34 100 NW5       29.54R WCI  30
$$

SDZ017-020-022-023-036>040-048>070-220500-
SOUTHEAST SOUTH DAKOTA

CITY           SKY/WX    TMP DP  RH WIND       PRES   REMARKS
SIOUX FALLS    CLOUDY    32  29  88 NW6       29.55R WCI  26
HURON          CLOUDY    31  28  89 NW8       29.57R WCI  23
CHAMBERLAIN    FOG       29  29 100 NW5       29.58R VSB 1/4 WCI  24
MITCHELL       CLOUDY    32  30  92 NW7       29.58R WCI  26
YANKTON        CLEAR     28  27  93 W6        29.58R WCI  22
$$

ABBREVIATIONS USED IN REMARKS
   TC - TEMPERATURE IN CELSIUS
  WCI - WIND CHILL INDEX
   HX - HEAT INDEX
  VSB - VISIBILITY





USA.gov is the U.S. government's official web portal to all federal, state and local government web resources and services.